User: anonymous
Location: Caltech
(34.1382°N, 118.1253°W)
Time: 03:43:18
(UTC-07:00)
Language:

Oscar 16 - Orbit

View from above orbital plane
View from above orbital plane
View from above satellite
View from above satellite

Ground track
Ground track

The orbit data is extracted from the following two-line orbital elements,

1 20439U 90005D   14230.89742248  .00000073  00000-0  43200-4 0   934
2 20439 098.5089 167.0606 0010187 339.9559 065.9735 14.32376432283468
Epoch (UTC): 18 August 2014 21:32:17
Eccentricity: 0.0010187
inclination: 98.5089°
perigee height: 776 km
apogee height: 791 km
right ascension of ascending node: 167.0606°
argument of perigee: 339.9559°
revolutions per day: 14.32376432
mean anomaly at epoch: 65.9735°
orbit number at epoch: 28346

The dashed part of the orbit path shows where the satellite is in the earth's shadow,  

DLR